THY384 LOWW-LDDU

Flight info

Callsign THY384
Flight time 1h 1m
Altitude 35000
Route STEIN DCT NOHAT DCT KOPRY DCT NETKO
Aircraft A20N/M-SDE2E3FGHIRWXY/LB1

Departure

Time 2026-05-07 15:35
Airport Vienna International Airport (LOWW)

Arrival

Time 2026-05-07 16:37
Airport Dubrovnik Ruđer Bošković Airport (LDDU)
Time Latitude Longitude Altitude Speed Heading
2026-05-07 15:03 48.11586 16.56629 616 ft 0 kts 206°
2026-05-07 15:32 48.11577 16.56622 609 ft 4 kts 206°
2026-05-07 15:32 48.11543 16.56600 620 ft 7 kts 199°
2026-05-07 15:32 48.11492 16.56607 616 ft 8 kts 181°
2026-05-07 15:32 48.11432 16.56604 609 ft 9 kts 148°
2026-05-07 15:33 48.11398 16.56695 620 ft 11 kts 116°
2026-05-07 15:33 48.11360 16.56814 617 ft 14 kts 116°
2026-05-07 15:33 48.11313 16.56955 618 ft 16 kts 116°
2026-05-07 15:33 48.11264 16.57107 615 ft 14 kts 116°
2026-05-07 15:34 48.11227 16.57216 621 ft 9 kts 119°
2026-05-07 15:34 48.11170 16.57227 618 ft 10 kts 205°
2026-05-07 15:34 48.11103 16.57174 612 ft 12 kts 214°
2026-05-07 15:34 48.11072 16.57062 609 ft 13 kts 282°
2026-05-07 15:35 48.11157 16.56786 615 ft 60 kts 296°
2026-05-07 15:35 48.11433 16.55937 620 ft 119 kts 295°
2026-05-07 15:35 48.11864 16.54608 636 ft 161 kts 294°
2026-05-07 15:35 48.12350 16.53179 1352 ft 146 kts 295°
2026-05-07 15:36 48.12822 16.51836 1898 ft 150 kts 295°
2026-05-07 15:36 48.13278 16.50377 2356 ft 159 kts 287°
2026-05-07 15:36 48.13446 16.48735 2877 ft 163 kts 264°
2026-05-07 15:36 48.13116 16.47106 3463 ft 167 kts 237°
2026-05-07 15:37 48.12318 16.45830 4105 ft 172 kts 212°
2026-05-07 15:37 48.11188 16.45131 4733 ft 182 kts 192°
2026-05-07 15:37 48.09892 16.44984 5355 ft 192 kts 177°
2026-05-07 15:37 48.08535 16.45189 6027 ft 200 kts 173°
2026-05-07 15:38 48.07129 16.45506 6694 ft 208 kts 171°
2026-05-07 15:38 48.05675 16.45863 7341 ft 215 kts 171°
2026-05-07 15:38 48.04173 16.46227 8000 ft 222 kts 172°
2026-05-07 15:38 48.02624 16.46591 8672 ft 228 kts 172°
2026-05-07 15:39 48.01035 16.46956 9358 ft 234 kts 172°
2026-05-07 15:39 47.99405 16.47325 10022 ft 240 kts 173°
2026-05-07 15:39 47.97707 16.47708 10496 ft 254 kts 173°
2026-05-07 15:39 47.95965 16.48100 11013 ft 258 kts 173°
2026-05-07 15:40 47.94145 16.48511 11551 ft 272 kts 173°
2026-05-07 15:40 47.92222 16.48944 12092 ft 286 kts 173°
2026-05-07 15:40 47.90204 16.49398 12648 ft 300 kts 173°
2026-05-07 15:40 47.88095 16.49873 13204 ft 313 kts 173°
2026-05-07 15:41 47.85898 16.50368 13775 ft 325 kts 174°
2026-05-07 15:41 47.83618 16.50880 14286 ft 337 kts 174°
2026-05-07 15:41 47.81266 16.51409 14800 ft 346 kts 174°
2026-05-07 15:41 47.78876 16.51947 15392 ft 348 kts 174°
2026-05-07 15:42 47.76479 16.52487 16015 ft 349 kts 174°
2026-05-07 15:42 47.74072 16.53027 16668 ft 351 kts 174°
2026-05-07 15:42 47.71661 16.53567 17380 ft 351 kts 174°
2026-05-07 15:42 47.69236 16.54109 18171 ft 352 kts 175°
2026-05-07 15:43 47.66809 16.54651 18857 ft 353 kts 175°
2026-05-07 15:43 47.64381 16.55194 19564 ft 353 kts 175°
2026-05-07 15:43 47.61953 16.55736 20278 ft 353 kts 175°
2026-05-07 15:43 47.59512 16.56280 20897 ft 356 kts 175°
2026-05-07 15:44 47.57053 16.56824 21469 ft 360 kts 175°
2026-05-07 15:44 47.54556 16.57377 22055 ft 364 kts 175°
2026-05-07 15:44 47.52037 16.57934 22645 ft 368 kts 175°
2026-05-07 15:44 47.49495 16.58497 23241 ft 371 kts 175°
2026-05-07 15:45 47.46938 16.59061 23791 ft 373 kts 175°
2026-05-07 15:45 47.44372 16.59628 24309 ft 374 kts 175°
2026-05-07 15:45 47.41786 16.60046 24806 ft 373 kts 181°
2026-05-07 15:45 47.39184 16.60162 25224 ft 376 kts 182°
2026-05-07 15:46 47.33906 16.60373 26072 ft 383 kts 182°
2026-05-07 15:46 47.31230 16.60486 26502 ft 386 kts 182°
2026-05-07 15:46 47.28542 16.60603 26941 ft 388 kts 182°
2026-05-07 15:47 47.25838 16.60721 27388 ft 390 kts 182°
2026-05-07 15:47 47.23124 16.60839 27844 ft 391 kts 182°
2026-05-07 15:47 47.20401 16.60958 28282 ft 392 kts 182°
2026-05-07 15:47 47.17676 16.61076 28747 ft 392 kts 182°
2026-05-07 15:48 47.14952 16.61194 29215 ft 392 kts 182°
2026-05-07 15:48 47.12230 16.61312 29697 ft 391 kts 182°
2026-05-07 15:48 47.09512 16.61429 30156 ft 391 kts 182°
2026-05-07 15:48 47.06796 16.61546 30572 ft 390 kts 183°
2026-05-07 15:49 47.04121 16.61661 30986 ft 389 kts 183°
2026-05-07 15:49 47.01418 16.61775 31399 ft 388 kts 183°
2026-05-07 15:49 46.98720 16.61889 31807 ft 387 kts 183°
2026-05-07 15:49 46.96030 16.62004 32185 ft 387 kts 183°
2026-05-07 15:50 46.93335 16.62118 32527 ft 388 kts 183°
2026-05-07 15:50 46.90638 16.62233 32874 ft 388 kts 183°
2026-05-07 15:50 46.87939 16.62348 33220 ft 388 kts 183°
2026-05-07 15:50 46.85242 16.62474 33574 ft 388 kts 182°
2026-05-07 15:51 46.82547 16.62874 33929 ft 391 kts 176°
2026-05-07 15:51 46.79873 16.63683 34238 ft 394 kts 171°
2026-05-07 15:51 46.77254 16.64897 34521 ft 397 kts 165°
2026-05-07 15:51 46.74687 16.66428 34825 ft 398 kts 164°
2026-05-07 15:52 46.72123 16.67973 34944 ft 402 kts 164°
2026-05-07 15:52 46.66874 16.71095 34958 ft 415 kts 164°
2026-05-07 15:53 46.61424 16.74318 34962 ft 428 kts 164°
2026-05-07 15:53 46.55820 16.77629 34922 ft 441 kts 164°
2026-05-07 15:54 46.50103 16.81004 34966 ft 444 kts 164°
2026-05-07 15:54 46.45352 16.83803 34968 ft 443 kts 164°
2026-05-07 15:55 46.39638 16.87158 34967 ft 443 kts 164°
2026-05-07 15:55 46.33922 16.90505 34970 ft 443 kts 164°
2026-05-07 15:56 46.28198 16.93850 34954 ft 444 kts 165°
2026-05-07 15:56 46.22378 16.96610 34955 ft 436 kts 174°
2026-05-07 15:57 46.16429 16.98057 34963 ft 433 kts 177°
2026-05-07 15:57 46.10467 16.99409 34959 ft 434 kts 177°
2026-05-07 15:58 46.04495 17.00780 34957 ft 435 kts 177°
2026-05-07 15:58 45.98506 17.02154 34968 ft 437 kts 177°
2026-05-07 15:59 45.92499 17.03528 34980 ft 438 kts 177°
2026-05-07 15:59 45.86465 17.04906 34977 ft 440 kts 177°
2026-05-07 16:00 45.80414 17.06284 34989 ft 441 kts 177°
2026-05-07 16:00 45.74348 17.07662 35004 ft 441 kts 177°
2026-05-07 16:01 45.68279 17.09038 35003 ft 441 kts 177°
2026-05-07 16:01 45.62205 17.10410 34996 ft 443 kts 177°
2026-05-07 16:02 45.56113 17.11785 35003 ft 443 kts 177°
2026-05-07 16:02 45.50057 17.13150 35009 ft 444 kts 177°
2026-05-07 16:03 45.43953 17.14522 35013 ft 444 kts 177°
2026-05-07 16:03 45.37853 17.15890 35015 ft 444 kts 177°
2026-05-07 16:04 45.31756 17.17253 35016 ft 444 kts 177°
2026-05-07 16:04 45.25657 17.18615 34997 ft 444 kts 177°
2026-05-07 16:05 45.19548 17.19976 34994 ft 444 kts 177°
2026-05-07 16:05 45.13439 17.21332 34998 ft 445 kts 177°
2026-05-07 16:06 45.07315 17.22691 35005 ft 446 kts 177°
2026-05-07 16:06 45.01178 17.24049 34996 ft 447 kts 177°
2026-05-07 16:07 44.95016 17.25410 35019 ft 448 kts 177°
2026-05-07 16:07 44.88844 17.26770 35026 ft 449 kts 177°
2026-05-07 16:08 44.82663 17.28130 35023 ft 450 kts 177°
2026-05-07 16:08 44.76464 17.29490 35032 ft 451 kts 177°
2026-05-07 16:09 44.70259 17.30849 35028 ft 451 kts 177°
2026-05-07 16:09 44.64100 17.32193 35016 ft 451 kts 177°
2026-05-07 16:10 44.57906 17.33545 35034 ft 451 kts 177°
2026-05-07 16:10 44.51706 17.34894 35039 ft 451 kts 177°
2026-05-07 16:11 44.45511 17.36239 35032 ft 451 kts 177°
2026-05-07 16:11 44.39314 17.37590 35032 ft 450 kts 177°
2026-05-07 16:12 44.33113 17.38924 35050 ft 451 kts 177°
2026-05-07 16:12 44.26867 17.40269 35043 ft 451 kts 177°
2026-05-07 16:13 44.20708 17.41594 35047 ft 450 kts 177°
2026-05-07 16:13 44.14583 17.42907 35057 ft 451 kts 177°
2026-05-07 16:14 44.08387 17.44237 35065 ft 451 kts 177°
2026-05-07 16:14 44.02203 17.45563 34807 ft 449 kts 178°
2026-05-07 16:14 43.99131 17.46222 34315 ft 447 kts 178°
2026-05-07 16:15 43.96056 17.46877 33602 ft 447 kts 178°
2026-05-07 16:15 43.92980 17.47531 32821 ft 447 kts 178°
2026-05-07 16:15 43.89904 17.48184 31987 ft 448 kts 178°
2026-05-07 16:15 43.86817 17.48839 31108 ft 450 kts 178°
2026-05-07 16:16 43.83732 17.49495 30430 ft 447 kts 178°
2026-05-07 16:16 43.80679 17.50148 29814 ft 441 kts 178°
2026-05-07 16:16 43.77660 17.50788 29077 ft 437 kts 178°
2026-05-07 16:16 43.74669 17.51424 28458 ft 432 kts 178°
2026-05-07 16:17 43.71713 17.52050 27845 ft 427 kts 178°
2026-05-07 16:17 43.68793 17.52666 27241 ft 423 kts 178°
2026-05-07 16:17 43.65902 17.53276 26604 ft 418 kts 178°
2026-05-07 16:17 43.63038 17.53879 26026 ft 413 kts 177°
2026-05-07 16:18 43.60194 17.54474 25303 ft 413 kts 177°
2026-05-07 16:18 43.57366 17.55068 24794 ft 408 kts 176°
2026-05-07 16:18 43.54572 17.55655 24272 ft 405 kts 176°
2026-05-07 16:18 43.51804 17.56235 23736 ft 400 kts 176°
2026-05-07 16:19 43.49064 17.56804 23121 ft 396 kts 176°
2026-05-07 16:19 43.46347 17.57373 22456 ft 394 kts 176°
2026-05-07 16:19 43.43646 17.57941 21816 ft 391 kts 176°
2026-05-07 16:19 43.40964 17.58504 21205 ft 389 kts 176°
2026-05-07 16:20 43.38341 17.59054 20668 ft 385 kts 176°
2026-05-07 16:20 43.35692 17.59608 20138 ft 385 kts 176°
2026-05-07 16:20 43.33048 17.60159 19600 ft 383 kts 176°
2026-05-07 16:20 43.30426 17.60707 19081 ft 379 kts 176°
2026-05-07 16:21 43.27830 17.61248 18582 ft 376 kts 176°
2026-05-07 16:21 43.25253 17.61785 18022 ft 372 kts 176°
2026-05-07 16:21 43.22706 17.62316 17446 ft 369 kts 176°
2026-05-07 16:21 43.20175 17.62842 16862 ft 366 kts 176°
2026-05-07 16:22 43.17663 17.63363 16313 ft 363 kts 175°
2026-05-07 16:22 43.15179 17.63878 15799 ft 359 kts 175°
2026-05-07 16:22 43.12719 17.64389 15314 ft 355 kts 175°
2026-05-07 16:22 43.10288 17.64893 14829 ft 351 kts 175°
2026-05-07 16:23 43.07885 17.65390 14384 ft 347 kts 175°
2026-05-07 16:23 43.05507 17.65659 13938 ft 339 kts 187°
2026-05-07 16:23 43.03232 17.65049 13435 ft 330 kts 203°
2026-05-07 16:23 43.01222 17.63633 12943 ft 323 kts 215°
2026-05-07 16:24 42.99339 17.61982 12456 ft 320 kts 214°
2026-05-07 16:24 42.97479 17.60359 12142 ft 312 kts 214°
2026-05-07 16:24 42.95683 17.58801 11987 ft 300 kts 214°
2026-05-07 16:24 42.93942 17.57294 11750 ft 292 kts 214°
2026-05-07 16:25 42.92103 17.56229 11494 ft 287 kts 193°
2026-05-07 16:25 42.90122 17.56273 11242 ft 286 kts 169°
2026-05-07 16:25 42.88325 17.57422 10904 ft 290 kts 146°
2026-05-07 16:25 42.86862 17.59346 10487 ft 293 kts 138°
2026-05-07 16:26 42.85440 17.61352 10070 ft 295 kts 137°
2026-05-07 16:26 42.84012 17.63367 9590 ft 296 kts 137°
2026-05-07 16:26 42.82576 17.65381 9111 ft 296 kts 137°
2026-05-07 16:26 42.81625 17.66711 8810 ft 296 kts 137°
2026-05-07 16:27 42.79706 17.69385 8299 ft 292 kts 138°
2026-05-07 16:27 42.78303 17.71353 7975 ft 288 kts 135°
2026-05-07 16:27 42.77109 17.73493 7656 ft 287 kts 125°
2026-05-07 16:27 42.76151 17.75899 7331 ft 284 kts 121°
2026-05-07 16:28 42.75249 17.78237 7009 ft 281 kts 121°
2026-05-07 16:28 42.74343 17.80567 6705 ft 277 kts 121°
2026-05-07 16:28 42.73452 17.82855 6373 ft 269 kts 121°
2026-05-07 16:28 42.72598 17.85058 6065 ft 257 kts 120°
2026-05-07 16:29 42.71835 17.87167 5946 ft 241 kts 120°
2026-05-07 16:29 42.71102 17.89121 5848 ft 228 kts 122°
2026-05-07 16:29 42.70379 17.90950 5727 ft 209 kts 123°
2026-05-07 16:29 42.69711 17.92628 5641 ft 202 kts 123°
2026-05-07 16:30 42.69070 17.94240 5401 ft 185 kts 123°
2026-05-07 16:30 42.68483 17.95719 5190 ft 170 kts 124°
2026-05-07 16:30 42.67944 17.97076 4982 ft 157 kts 124°
2026-05-07 16:30 42.67441 17.98337 4814 ft 149 kts 125°
2026-05-07 16:31 42.66951 17.99557 4619 ft 146 kts 124°
2026-05-07 16:31 42.66471 18.00764 4432 ft 144 kts 124°
2026-05-07 16:31 42.65996 18.01957 4252 ft 143 kts 123°
2026-05-07 16:31 42.65529 18.03131 4060 ft 140 kts 123°
2026-05-07 16:32 42.65069 18.04288 3871 ft 138 kts 124°
2026-05-07 16:32 42.64613 18.05436 3702 ft 138 kts 123°
2026-05-07 16:32 42.64163 18.06570 3529 ft 136 kts 122°
2026-05-07 16:32 42.63717 18.07693 3345 ft 136 kts 122°
2026-05-07 16:33 42.63263 18.08836 3164 ft 137 kts 122°
2026-05-07 16:33 42.62820 18.09953 2979 ft 133 kts 122°
2026-05-07 16:33 42.62378 18.11066 2800 ft 134 kts 121°
2026-05-07 16:33 42.61949 18.12147 2625 ft 130 kts 120°
2026-05-07 16:34 42.61515 18.13242 2451 ft 131 kts 120°
2026-05-07 16:34 42.61086 18.14324 2280 ft 131 kts 121°
2026-05-07 16:34 42.60644 18.15439 2101 ft 134 kts 120°
2026-05-07 16:34 42.60210 18.16534 1917 ft 133 kts 120°
2026-05-07 16:35 42.59770 18.17646 1743 ft 133 kts 120°
2026-05-07 16:35 42.59338 18.18743 1573 ft 132 kts 121°
2026-05-07 16:35 42.58897 18.19857 1430 ft 135 kts 121°
2026-05-07 16:35 42.58457 18.20966 1275 ft 131 kts 119°
2026-05-07 16:36 42.58048 18.22064 1026 ft 130 kts 120°
2026-05-07 16:36 42.57603 18.23144 851 ft 132 kts 123°
2026-05-07 16:36 42.57179 18.24215 682 ft 124 kts 122°
2026-05-07 16:36 42.56754 18.25274 545 ft 133 kts 120°
2026-05-07 16:37 42.56374 18.26223 533 ft 80 kts 118°
2026-05-07 16:37 42.56239 18.26571 533 ft 11 kts 118°
2026-05-07 16:37 42.56205 18.26632 533 ft 9 kts 145°
2026-05-07 16:37 42.56153 18.26612 533 ft 9 kts 230°
2026-05-07 16:38 42.56142 18.26584 533 ft 2 kts 243°
2026-05-07 16:38 42.56129 18.26550 533 ft 6 kts 243°
2026-05-07 16:38 42.56126 18.26543 533 ft 0 kts 243°
2026-05-07 16:38 42.56126 18.26541 533 ft 1 kts 243°
2026-05-07 16:39 42.56115 18.26515 534 ft 5 kts 243°
2026-05-07 16:39 42.56102 18.26458 534 ft 7 kts 260°
2026-05-07 16:39 42.56071 18.26417 534 ft 3 kts 210°
2026-05-07 16:39 42.56058 18.26407 534 ft 1 kts 210°
2026-05-07 16:40 42.56049 18.26400 534 ft 0 kts 210°